| time (UTC) | temp C | wind direction | speed KPH | gust KPH | rain 1hr cm | rain 24hr cm | rain mn cm | humidity % | barometer mb |
| 20260506073048 | 20 | 223 | 9.7 | 14.5 | 0.00 | 0.00 | 0.00 | 85 | 1017.0 |
| 20260506071608 | 20 | 238 | 9.7 | 16.1 | 0.00 | 0.00 | 0.00 | 85 | 1017.3 |
| 20260506061547 | 20 | 223 | 11.3 | 19.3 | 0.00 | 0.00 | 0.00 | 84 | 1017.3 |
| 20260506044553 | 20 | 209 | 14.5 | 22.5 | 0.00 | 0.00 | 0.00 | 82 | 1018.2 |
| 20260506043046 | 20 | 225 | 14.5 | 20.9 | 0.00 | 0.00 | 0.00 | 82 | 1018.3 |
| 20260506041557 | 20 | 278 | 12.9 | 20.9 | 0.00 | 0.00 | 0.00 | 83 | 1018.5 |
| 20260506040044 | 20 | 210 | 12.9 | 20.9 | 0.00 | 0.00 | 0.00 | 83 | 1018.6 |
| 20260506034545 | 20 | 257 | 12.9 | 22.5 | 0.00 | 0.00 | 0.00 | 82 | 1018.6 |
| 20260506033049 | 20 | 203 | 12.9 | 19.3 | 0.00 | 0.00 | 0.00 | 83 | 1018.7 |
| 20260506031546 | 20 | 222 | 12.9 | 20.9 | 0.00 | 0.00 | 0.00 | 83 | 1018.7 |
| 20260506030046 | 20 | 174 | 12.9 | 22.5 | 0.00 | 0.00 | 0.00 | 82 | 1018.8 |
| 20260506024546 | 20 | 213 | 12.9 | 20.9 | 0.00 | 0.00 | 0.00 | 82 | 1018.9 |
| 20260506023043 | 20 | 215 | 12.9 | 24.1 | 0.00 | 0.00 | 0.00 | 82 | 1018.9 |
| 20260506021553 | 20 | 171 | 14.5 | 22.5 | 0.00 | 0.00 | 0.00 | 82 | 1018.9 |
| 20260506020047 | 20 | 209 | 14.5 | 24.1 | 0.00 | 0.00 | 0.00 | 82 | 1018.9 |
| 20260506014552 | 20 | 216 | 12.9 | 24.1 | 0.00 | 0.00 | 0.00 | 81 | 1018.8 |
| 20260506013046 | 20 | 220 | 14.5 | 24.1 | 0.00 | 0.00 | 0.00 | 81 | 1018.7 |
| 20260506011550 | 20 | 231 | 12.9 | 24.1 | 0.00 | 0.00 | 0.00 | 83 | 1018.7 |
| 20260506010050 | 20 | 211 | 14.5 | 22.5 | 0.00 | 0.00 | 0.00 | 82 | 1018.7 |
| 20260506004548 | 20 | 193 | 12.9 | 22.5 | 0.00 | 0.00 | 0.00 | 82 | 1018.6 |
| 20260506003047 | 20 | 184 | 12.9 | 20.9 | 0.00 | 0.00 | 0.00 | 83 | 1018.4 |
| 20260506001607 | 20 | 210 | 14.5 | 22.5 | 0.00 | 0.00 | 0.00 | 83 | 1018.4 |
| 20260506000049 | 20 | 216 | 11.3 | 20.9 | 0.00 | 0.00 | 0.00 | 83 | 1018.5 |
| 20260505234550 | 20 | 233 | 8.0 | 16.1 | 0.00 | 0.00 | 0.00 | 84 | 1018.4 |
| 20260505233051 | 21 | 229 | 6.4 | 16.1 | 0.00 | 0.00 | 0.00 | 83 | 1018.4 |
| 20260505231555 | 21 | 219 | 4.8 | 11.3 | 0.00 | 0.00 | 0.00 | 83 | 1018.5 |
| 20260505230049 | 21 | 218 | 3.2 | 11.3 | 0.00 | 0.00 | 0.00 | 83 | 1018.5 |
| 20260505224547 | 21 | 235 | 4.8 | 12.9 | 0.00 | 0.00 | 0.00 | 82 | 1018.5 |
| 20260505223054 | 21 | 223 | 6.4 | 12.9 | 0.00 | 0.00 | 0.00 | 81 | 1018.7 |
| 20260505221549 | 21 | 186 | 4.8 | 12.9 | 0.00 | 0.00 | 0.00 | 81 | 1018.5 |
| 20260505220047 | 21 | 210 | 4.8 | 14.5 | 0.00 | 0.00 | 0.00 | 81 | 1018.3 |
| 20260505214601 | 21 | 219 | 6.4 | 11.3 | 0.00 | 0.00 | 0.00 | 81 | 1018.2 |
| 20260505213055 | 21 | 205 | 8.0 | 17.7 | 0.00 | 0.00 | 0.00 | 80 | 1018.2 |
| 20260505211544 | 21 | 222 | 11.3 | 16.1 | 0.00 | 0.00 | 0.00 | 80 | 1018.4 |
| 20260505210052 | 21 | 224 | 12.9 | 22.5 | 0.00 | 0.00 | 0.00 | 79 | 1018.5 |
| 20260505204543 | 21 | 216 | 11.3 | 19.3 | 0.00 | 0.00 | 0.00 | 79 | 1018.5 |
| 20260505203047 | 22 | 210 | 11.3 | 19.3 | 0.00 | 0.00 | 0.00 | 79 | 1018.6 |
| 20260505201553 | 22 | 221 | 9.7 | 17.7 | 0.00 | 0.00 | 0.00 | 77 | 1018.8 |
| 20260505200047 | 22 | 202 | 9.7 | 17.7 | 0.00 | 0.00 | 0.00 | 77 | 1019.1 |
| 20260505194547 | 23 | 207 | 8.0 | 19.3 | 0.00 | 0.00 | 0.00 | 74 | 1019.4 |
| 20260505193048 | 23 | 238 | 6.4 | 17.7 | 0.00 | 0.00 | 0.00 | 74 | 1019.5 |
| 20260505191552 | 22 | 224 | 8.0 | 17.7 | 0.00 | 0.00 | 0.00 | 76 | 1019.5 |
| 20260505190110 | 22 | 250 | 11.3 | 19.3 | 0.00 | 0.00 | 0.00 | 76 | 1019.6 |
| 20260505184600 | 22 | 192 | 11.3 | 19.3 | 0.00 | 0.00 | 0.00 | 75 | 1019.6 |
| 20260505183050 | 23 | 186 | 9.7 | 20.9 | 0.00 | 0.00 | 0.00 | 73 | 1019.6 |
| 20260505181544 | 23 | 250 | 9.7 | 19.3 | 0.00 | 0.00 | 0.00 | 75 | 1019.6 |
| 20260505180046 | 22 | 202 | 9.7 | 19.3 | 0.00 | 0.00 | 0.00 | 74 | 1019.6 |
| 20260505174552 | 22 | 236 | 12.9 | 19.3 | 0.00 | 0.00 | 0.00 | 75 | 1019.8 |
| 20260505173047 | 22 | 166 | 6.4 | 12.9 | 0.00 | 0.00 | 0.00 | 74 | 1019.9 |
| 20260505171548 | 23 | 188 | 4.8 | 11.3 | 0.00 | 0.00 | 0.00 | 73 | 1019.9 |
| 20260505170056 | 23 | 227 | 3.2 | 12.9 | 0.00 | 0.00 | 0.00 | 74 | 1020.0 |
| 20260505164547 | 23 | 196 | 4.8 | 11.3 | 0.00 | 0.00 | 0.00 | 74 | 1020.3 |
| 20260505163116 | 22 | 245 | 3.2 | 11.3 | 0.00 | 0.00 | 0.00 | 74 | 1020.4 |
| 20260505161545 | 22 | 204 | 1.6 | 11.3 | 0.00 | 0.00 | 0.00 | 74 | 1020.3 |
| 20260505153107 | 22 | 230 | 3.2 | 9.7 | 0.00 | 0.00 | 0.00 | 76 | 1020.4 |
| 20260505151544 | 22 | 210 | 0.0 | 8.0 | 0.00 | 0.00 | 0.00 | 77 | 1020.4 |
| 20260505150109 | 23 | 0 | 0.0 | 8.0 | 0.00 | 0.00 | 0.00 | 76 | 1020.1 |
| 20260505140114 | 22 | 226 | 3.2 | 8.0 | 0.00 | 0.00 | 0.00 | 75 | 1020.0 |
| 20260505124543 | 23 | 230 | 0.0 | 4.8 | 0.00 | 0.00 | 0.00 | 75 | 1019.8 |
| 20260505123105 | 23 | 236 | 0.0 | 3.2 | 0.00 | 0.00 | 0.00 | 76 | 1019.7 |
| 20260505121543 | 22 | 158 | 0.0 | 6.4 | 0.00 | 0.00 | 0.00 | 77 | 1019.6 |
| 20260505120052 | 22 | 219 | 0.0 | 3.2 | 0.00 | 0.00 | 0.00 | 79 | 1019.6 |
| 20260505114553 | 21 | 214 | 1.6 | 8.0 | 0.00 | 0.00 | 0.00 | 79 | 1019.5 |
| 20260505113051 | 21 | 217 | 0.0 | 6.4 | 0.00 | 0.00 | 0.00 | 80 | 1019.4 |
| 20260505111546 | 20 | 0 | 1.6 | 4.8 | 0.00 | 0.00 | 0.00 | 81 | 1019.3 |
| 20260505101547 | 18 | 231 | 3.2 | 8.0 | 0.00 | 0.00 | 0.00 | 84 | 1018.5 |
| 20260505100047 | 18 | 218 | 3.2 | 6.4 | 0.00 | 0.00 | 0.00 | 84 | 1018.4 |
| 20260505094549 | 18 | 210 | 3.2 | 8.0 | 0.00 | 0.00 | 0.00 | 84 | 1018.4 |
| 20260505093048 | 18 | 219 | 1.6 | 8.0 | 0.00 | 0.00 | 0.00 | 84 | 1018.3 |
| 20260505091547 | 18 | 224 | 1.6 | 8.0 | 0.00 | 0.00 | 0.00 | 84 | 1018.3 |
| 20260505090105 | 18 | 230 | 1.6 | 4.8 | 0.00 | 0.00 | 0.00 | 84 | 1018.1 |
| 20260505084548 | 18 | 213 | 1.6 | 8.0 | 0.00 | 0.00 | 0.00 | 84 | 1018.0 |
| 20260505083052 | 18 | 242 | 1.6 | 6.4 | 0.00 | 0.00 | 0.00 | 83 | 1018.1 |
| 20260505081554 | 18 | 321 | 1.6 | 6.4 | 0.00 | 0.00 | 0.00 | 83 | 1018.0 |